Visibility
15.0 15.0 15.0 15.0 15.0 15.0 15.0 15.0 7.2 15.0 6.6 8.6 7.7 10.8 4.7 5.3 13.7 9.5 0.7 2.2 4.0 4.9 15.0 15.0 15.0 15.0 15.0 15.0 15.0 15.0 15.0 15.0 15.0 15.0 15.0 15.0 15.0 15.0 15.0 15.0 15.0 15.0 15.0 15.0
8.3 15.0 15.0 15.0 15.0 15.0 15.0 14.8 14.8 15.0 15.0 15.0 15.0 11.5 14.7 15.0 11.8 15.0 15.0 15.0 13.8 15.0 15.0 15.0 15.0 15.0 15.0 15.0 15.0 15.0 15.0 15.0 15.0 15.0 15.0 15.0 15.0 15.0 15.0 15.0 15.0 15.0 15.0 15.0
15.0 15.0 15.0 1.7 10.9 9.5 5.7 0.4 0.1 0.6 0.2 15.0 11.5 5.2 15.0 15.0 15.0 15.0 15.0 15.0 15.0 15.0 15.0 15.0 15.0 15.0 15.0 15.0 15.0 15.0 15.0 15.0 15.0 15.0 15.0 15.0 15.0 15.0 15.0 15.0 15.0 15.0 15.0 15.0
13.0 15.0 6.1 15.0 15.0 15.0 0.1 0.3 11.7 12.5 15.0 12.5 14.0 8.4 15.0 15.0 15.0 15.0 15.0 15.0 15.0 15.0 15.0 15.0 15.0 15.0 15.0 15.0 15.0 15.0 15.0 15.0 15.0 15.0 15.0 15.0 15.0 15.0 15.0 15.0 15.0 15.0 15.0 4.8
1.0 4.5 5.8 15.0 15.0 12.8 2.9 0.3 2.6 0.3 5.1 15.0 15.0 8.7 0.0 15.0 15.0 15.0 15.0 15.0 15.0 15.0 15.0 15.0 15.0 15.0 15.0 15.0 15.0 15.0 15.0 15.0 15.0 15.0 15.0 15.0 15.0 15.0 15.0 15.0 15.0 15.0 13.7 0.1
8.3 0.3 0.5 11.9 15.0 15.0 15.0 0.2 2.0 3.9 5.3 0.1 14.0 1.3 0.1 15.0 15.0 15.0 15.0 15.0 15.0 15.0 15.0 15.0 15.0 15.0 15.0 15.0 15.0 15.0 15.0 15.0 15.0 15.0 15.0 15.0 15.0 15.0 15.0 15.0 14.6 0.3 0.1 10.6
0.7 5.5 12.9 15.0 15.0 15.0 11.9 8.1 0.3 0.1 0.0 0.0 0.0 0.0 0.0 15.0 15.0 15.0 15.0 15.0 15.0 15.0 15.0 15.0 15.0 15.0 15.0 15.0 15.0 15.0 15.0 15.0 15.0 15.0 15.0 15.0 15.0 15.0 15.0 15.0 0.1 0.1 2.0 7.7
3.4 13.4 15.0 15.0 13.8 9.7 0.1 0.0 0.0 0.0 0.0 0.1 0.1 1.4 13.3 15.0 15.0 15.0 15.0 15.0 15.0 15.0 15.0 15.0 15.0 15.0 15.0 15.0 15.0 15.0 15.0 15.0 15.0 15.0 15.0 15.0 15.0 15.0 15.0 8.5 0.1 0.2 9.3 15.0
13.9 11.3 1.2 0.1 0.0 0.0 0.0 0.0 0.0 0.0 8.1 15.0 15.0 15.0 15.0 15.0 15.0 15.0 15.0 15.0 15.0 15.0 15.0 15.0 15.0 15.0 15.0 15.0 15.0 15.0 15.0 15.0 15.0 15.0 15.0 15.0 11.3 10.2 2.1 0.5 0.1 0.2 15.0 15.0
8.1 6.9 3.2 0.4 0.0 0.2 0.6 0.1 5.2 15.0 15.0 15.0 15.0 15.0 15.0 15.0 15.0 15.0 15.0 15.0 15.0 15.0 15.0 15.0 15.0 15.0 15.0 15.0 15.0 15.0 13.5 6.0 6.6 4.9 12.8 15.0 15.0 14.5 3.7 0.2 0.1 0.1 12.8 15.0
15.0 9.2 3.8 0.0 14.0 13.1 15.0 15.0 15.0 15.0 15.0 15.0 15.0 15.0 13.5 15.0 15.0 15.0 15.0 15.0 15.0 15.0 15.0 15.0 15.0 15.0 15.0 15.0 15.0 4.3 13.4 8.4 11.8 3.9 1.7 1.1 13.0 8.0 1.5 7.1 0.7 0.0 0.2 15.0
15.0 15.0 13.5 0.3 15.0 15.0 15.0 15.0 15.0 15.0 15.0 15.0 15.0 15.0 15.0 14.2 0.6 7.1 13.3 15.0 15.0 15.0 15.0 15.0 15.0 15.0 15.0 13.6 11.7 0.8 4.1 6.3 0.6 0.3 0.5 0.9 1.0 12.6 15.0 15.0 7.6 15.0 12.9 15.0
15.0 15.0 15.0 15.0 15.0 15.0 15.0 15.0 15.0 15.0 15.0 15.0 15.0 15.0 14.8 4.0 1.0 15.0 15.0 15.0 13.8 13.7 15.0 15.0 15.0 15.0 15.0 2.2 7.7 1.9 1.1 2.0 0.6 1.2 1.5 0.7 0.5 0.5 0.9 15.0 15.0 9.7 2.3 0.3
15.0 15.0 15.0 15.0 15.0 15.0 15.0 15.0 15.0 15.0 15.0 15.0 15.0 15.0 15.0 15.0 15.0 2.2 3.0 1.3 5.5 15.0 15.0 10.8 7.9 7.2 1.9 1.2 3.1 9.3 6.1 1.6 0.3 0.2 0.1 0.1 0.1 0.3 2.7 1.2 0.5 0.2 0.1 0.1
15.0 15.0 15.0 15.0 15.0 15.0 15.0 15.0 15.0 15.0 15.0 15.0 15.0 15.0 15.0 3.8 2.4 0.7 2.1 7.6 2.3 15.0 15.0 5.1 3.2 2.7 2.2 1.0 2.9 3.2 1.1 0.6 0.3 0.1 0.1 0.1 0.3 0.6 8.0 12.5 5.8 1.0 11.4 4.8
15.0 15.0 15.0 15.0 15.0 15.0 15.0 15.0 15.0 15.0 15.0 15.0 15.0 15.0 12.9 0.7 1.9 12.8 3.7 2.4 1.2 1.7 1.1 1.2 2.1 0.9 1.2 7.1 7.1 9.6 10.3 0.7 0.1 0.1 0.1 0.1 0.1 0.1 0.2 1.7 5.5 2.5 0.4 0.1
15.0 15.0 15.0 15.0 15.0 15.0 15.0 15.0 15.0 15.0 15.0 15.0 14.9 6.3 14.9 6.8 13.9 15.0 14.8 0.6 0.8 0.3 0.5 0.2 0.3 0.6 0.9 3.4 6.2 4.7 5.3 5.8 0.2 0.1 0.1 0.1 0.1 0.1 0.2 0.3 0.2 0.2 0.1 0.1
15.0 15.0 15.0 15.0 15.0 15.0 15.0 15.0 15.0 15.0 15.0 15.0 4.7 4.1 7.5 2.3 0.6 0.6 0.5 1.2 15.0 15.0 9.1 0.9 0.3 0.2 1.6 5.4 9.3 6.2 5.9 4.4 0.4 0.1 0.1 0.1 0.1 0.1 0.1 0.3 0.1 0.1 0.1 0.1
15.0 15.0 15.0 15.0 15.0 15.0 15.0 15.0 15.0 15.0 8.8 15.0 4.6 4.0 1.6 0.4 0.1 0.2 0.3 4.9 15.0 11.0 14.2 1.8 0.3 0.2 0.4 8.1 15.0 6.0 5.2 6.7 2.1 0.2 0.1 0.1 0.1 0.1 0.1 0.1 0.1 0.1 0.1 0.1
15.0 15.0 15.0 15.0 15.0 15.0 15.0 15.0 13.6 15.0 15.0 7.1 4.6 7.0 6.9 4.7 1.3 4.2 14.5 5.1 1.5 0.2 0.4 0.5 0.3 0.2 0.3 1.0 4.5 6.2 5.2 1.7 1.5 1.0 0.1 0.1 0.1 0.1 0.1 0.1 0.1 0.1 0.1 0.1
15.0 15.0 15.0 15.0 15.0 15.0 13.9 5.6 4.1 4.4 14.7 2.7 1.8 2.3 1.2 0.8 1.5 1.8 4.3 5.7 13.4 1.9 0.5 0.4 0.3 0.3 0.3 0.3 0.5 1.1 1.4 1.1 0.4 0.3 0.5 0.1 0.1 0.1 0.1 0.1 0.1 0.1 0.1 0.1
10.2 11.2 15.0 14.9 14.8 13.3 5.5 4.1 2.6 2.4 4.1 3.5 3.1 2.5 2.3 2.8 4.0 12.7 6.8 0.3 0.6 1.3 0.6 0.3 0.2 0.2 0.3 0.3 0.3 0.3 0.3 0.4 0.4 0.3 0.3 0.4 0.5 0.2 0.1 0.1 0.1 0.1 0.1 0.1
4.1 5.0 4.3 4.1 4.9 8.8 15.0 13.2 3.4 2.7 1.8 1.6 1.4 1.3 0.7 0.6 0.4 0.6 5.7 4.3 1.2 2.1 1.6 0.3 0.2 0.2 0.2 0.3 0.2 0.2 0.2 0.2 0.3 0.2 0.2 0.2 0.3 0.4 0.4 0.2 0.1 0.1 0.1 0.1
15.0 5.3 3.3 3.5 14.2 15.0 15.0 15.0 4.2 11.0 2.4 1.2 0.8 1.0 0.8 1.4 7.5 4.6 2.1 2.7 3.8 2.9 0.6 0.3 0.3 0.2 0.1 0.1 0.4 0.2 0.3 0.3 0.2 0.5 0.3 0.9 2.2 2.0 2.6 2.0 0.7 0.2 0.2 0.1
15.0 6.8 4.2 15.0 15.0 14.3 6.4 4.1 4.1 13.1 13.4 1.9 2.9 3.0 3.2 1.2 0.4 0.4 1.4 3.9 2.5 4.7 2.1 1.0 0.7 0.4 0.2 0.1 0.2 1.1 1.7 1.8 2.2 4.1 4.1 4.1 4.1 4.1 4.0 5.2 4.2 4.1 4.1 4.1
10.2 4.1 4.1 15.0 14.8 4.2 4.1 4.1 4.0 4.1 3.7 4.1 3.9 2.3 2.6 1.8 1.8 3.7 4.1 4.2 5.2 3.9 1.2 0.8 0.4 0.4 0.4 0.2 0.3 0.6 1.0 1.6 3.3 3.2 4.1 4.1 4.3 4.1 6.0 7.3 6.4 6.6 5.0 4.4
1.0 9.9 9.3 12.9 4.2 3.7 3.6 4.1 4.1 4.0 1.2 1.3 3.6 2.5 1.7 2.3 3.7 3.8 2.3 2.7 2.8 3.5 3.0 1.2 0.9 0.5 0.4 0.4 0.6 1.1 1.1 1.2 1.2 2.0 3.9 4.1 4.4 4.9 9.8 5.2 5.6 7.1 12.7 13.8